Volver al catálogo

STARLINK-5763

ActivoComunicacionesVLEO
NORAD 56505·PAYLOAD·🇺🇸 United States

Lanzado May 14, 2023 desde Cape Canaveral Space Force Station

Loading…

Próximos Pases (próximas 24 horas)

TLE

ActualizadoSource: CelesTrak SupGP

Época: Sep 14, 2026, 21:16 UTC

1 56505C 23065C   26257.88659722  .00028084  00000+0  10174-2 0  2579
2 56505  43.0022 224.3227 0001597 264.6608   7.6612 15.27557570    17

Sigue STARLINK-5763 en tiempo real con AllMySat

Download on the App Store